[[{"header":{"parameterUnit":"m.s-1","parameterCategory":2,"la1":30.2991,"la2":30.254,"lo1":-89.0895,"lo2":-89.0444,"dy":0.0017,"dx":0.0017,"nx":28,"ny":28,"refTime":"2025-12-17T09:00:00:Z","depth":"0","parameterNumber":2,"parameterNumberName":"U-component_of_CURRENTS"},"data":[0,0,0,0,0,0,0,0,0,0,0,0,0,0,0,0,0,0,0,0,0,0,0,0,0,0,0,0,0,0,0,0,0,0,0,0,0,0,0,0,0,0,0,0,0,0,0,0,0,0,0,0,0,0,0,0,0,0,-0.2456,-0.2456,0,-0.2482,-0.2482,-0.2482,-0.2445,-0.2443,-0.2442,-0.2441,-0.2399,-0.2399,-0.2399,0,0,0,0,0,0,0,0,0,0,0,0,0,-0.2379,-0.238,-0.2455,-0.2456,-0.2457,-0.2482,-0.2482,-0.2482,-0.2445,-0.2443,-0.2442,-0.2441,-0.2399,-0.2399,-0.2399,0,0,0,0,0,0,0,0,0,0,0,0,0,-0.2407,-0.238,-0.2455,-0.2443,-0.2442,-0.2482,-0.2482,-0.2483,-0.2445,-0.2443,-0.2442,-0.244,-0.2399,-0.2399,-0.2399,-0.2432,0,0,-0.2398,-0.2398,0,0,0,0,0,0,0,0,-0.2405,-0.241,-0.2444,-0.2444,-0.2443,-0.246,-0.244,-0.2463,-0.2446,-0.2441,-0.2441,-0.2439,-0.2416,-0.2414,-0.2421,-0.243,-0.2428,-0.2398,-0.2398,-0.2398,-0.2398,0,0,0,0,0,0,0,-0.2404,-0.2408,-0.2464,-0.2445,-0.2444,-0.2438,-0.244,-0.2444,-0.2435,-0.2442,-0.244,-0.2447,-0.2414,-0.2421,-0.2419,-0.2427,-0.2398,-0.2398,-0.2398,-0.2398,-0.2435,-0.2436,0,0,0,0,0,0,-0.2407,-0.2407,-0.2463,-0.2465,-0.2422,-0.2441,-0.2443,-0.2455,-0.2436,-0.2433,-0.2448,-0.2445,-0.2422,-0.2419,-0.2417,-0.2434,-0.2398,-0.2398,-0.2398,-0.2434,-0.2435,-0.2436,0,0,0,0,0,0,-0.2405,-0.2412,-0.2462,-0.2438,-0.2444,-0.2444,-0.2458,-0.2456,-0.2456,-0.2442,-0.2437,-0.2448,-0.242,-0.2418,-0.2419,-0.2433,-0.2398,-0.2398,-0.2432,-0.2434,-0.2435,-0.2482,0,0,0,0,0,0,-0.2403,-0.2411,-0.2416,-0.2438,-0.2445,-0.2486,-0.2459,-0.2458,-0.2464,-0.246,-0.2441,-0.2436,-0.2419,-0.242,-0.2419,-0.2432,-0.2398,-0.2431,-0.2433,-0.2435,-0.2479,-0.2485,-0.2489,0,0,0,0,0,-0.24,-0.2419,-0.2416,-0.2423,-0.2454,-0.2487,-0.249,-0.2483,-0.2466,-0.2474,-0.2459,-0.2436,-0.2431,-0.2421,-0.242,-0.2433,-0.243,-0.2433,-0.2435,-0.2476,-0.2483,-0.2489,0,0,0,0,0,0,-0.2386,-0.2418,-0.2415,-0.2441,-0.2462,-0.2481,-0.2489,-0.2488,-0.2485,-0.2475,-0.2453,-0.2448,-0.2453,-0.2442,-0.2431,-0.245,-0.2426,-0.2429,-0.2458,-0.2465,-0.247,-0.2462,-0.2398,0,0,0,0,0,-0.2388,-0.2407,-0.2437,-0.2454,-0.2467,-0.2479,-0.2489,-0.2489,-0.2494,-0.2491,-0.2479,-0.2468,-0.2467,-0.2463,-0.2461,-0.2476,-0.2441,-0.2483,-0.2489,-0.2493,-0.2487,-0.2454,-0.2455,-0.2444,-0.2444,-0.2444,0,0,-0.2385,-0.2406,-0.2415,-0.2452,-0.2464,-0.2494,-0.2479,-0.2502,-0.2518,-0.2488,-0.2497,-0.2487,-0.2476,-0.2488,-0.249,-0.2477,-0.2479,-0.2496,-0.25,-0.2491,-0.2456,-0.2457,-0.2458,-0.2445,-0.2445,-0.2445,0,0,-0.2398,-0.2411,-0.2434,-0.2459,-0.2489,-0.2503,-0.2511,-0.2535,-0.2534,-0.2553,-0.2531,-0.2526,-0.2533,-0.2522,-0.2518,-0.2554,-0.2509,-0.2559,-0.2579,-0.2547,-0.2547,-0.2547,-0.2502,-0.2497,-0.2561,-0.2561,-0.2561,0,-0.2392,-0.2425,-0.2445,-0.2479,-0.2495,-0.2508,-0.2536,-0.2553,-0.257,-0.2567,-0.2559,-0.2554,-0.2546,-0.2549,-0.2564,-0.2564,-0.2535,-0.2554,-0.2552,-0.2551,-0.255,-0.2504,-0.2498,-0.2563,-0.2563,-0.2563,-0.2563,0,-0.2427,-0.2452,-0.247,-0.2513,-0.2537,-0.2563,-0.2593,-0.2606,-0.2606,-0.2612,-0.2612,-0.2602,-0.259,-0.2599,-0.2595,-0.2591,-0.2568,-0.2562,-0.2532,-0.2553,-0.2504,-0.2497,-0.2567,-0.2566,-0.2565,-0.2565,0,0,-0.2405,-0.2479,-0.248,-0.2501,-0.2553,-0.2574,-0.2609,-0.2633,-0.2637,-0.2649,-0.2645,-0.2654,-0.2634,-0.263,-0.262,-0.2604,-0.2577,-0.2586,-0.2583,-0.2535,-0.2495,-0.2408,-0.2391,-0.257,-0.2569,-0.2569,-0.2463,0,-0.2416,-0.2474,-0.251,-0.2554,-0.2583,-0.261,-0.2637,-0.266,-0.2668,-0.2671,-0.2658,-0.2655,-0.2652,-0.2643,-0.2628,-0.259,-0.2562,-0.2606,-0.2488,-0.2484,-0.2397,-0.2381,-0.2289,-0.2181,-0.2456,-0.2455,-0.2454,0,-0.2426,-0.2464,-0.251,-0.2565,-0.2578,-0.2606,-0.263,-0.266,-0.2675,-0.2677,-0.267,-0.2661,-0.2642,-0.2637,-0.2566,-0.2594,-0.2548,-0.2517,-0.2511,-0.2405,-0.2382,-0.2205,-0.2157,-0.2138,-0.2443,-0.2444,-0.2444,0,-0.2381,-0.2456,-0.2485,-0.2507,-0.2578,-0.259,-0.2619,-0.2647,-0.2656,-0.2672,-0.2664,-0.265,-0.262,-0.2579,-0.2516,-0.254,-0.2424,-0.2444,-0.2315,-0.2308,-0.2192,-0.2176,-0.2102,-0.2382,-0.2382,-0.2383,-0.2383,0,-0.2368,-0.2388,-0.2464,-0.248,-0.2499,-0.2563,-0.2574,-0.2602,-0.2628,-0.2623,-0.2652,-0.2624,-0.2604,-0.2541,-0.25,-0.2366,-0.2399,-0.2301,-0.227,-0.2206,-0.2193,-0.214,-0.2167,-0.2379,-0.2379,-0.238,-0.2381,0,-0.2301,-0.236,-0.2391,-0.2461,-0.2478,-0.2485,-0.2537,-0.2541,-0.2584,-0.2574,-0.2576,-0.2581,-0.2498,-0.2454,-0.2367,-0.2314,-0.217,-0.2167,-0.2086,-0.2047,-0.1917,-0.1951,-0.1832,-0.1781,-0.2011,-0.2008,-0.2005,0,-0.2269,-0.2281,-0.2347,-0.2352,-0.2378,-0.2408,-0.2419,-0.2493,-0.2501,-0.253,-0.2509,-0.2457,-0.2372,-0.2213,-0.2125,-0.2002,-0.2031,-0.1863,-0.1895,-0.1875,-0.1891,-0.1929,-0.1899,-0.1761,-0.1757,-0.1754,-0.1751,0,-0.2187,-0.221,-0.2231,-0.2249,-0.2264,-0.2284,-0.2316,-0.2321,-0.2395,-0.2381,-0.2335,-0.2272,-0.2141,-0.1968,-0.1836,-0.1771,-0.1817,-0.1786,-0.1786,-0.1696,-0.1711,-0.1657,-0.1871,-0.172,-0.1723,-0.1725,-0.1727,-0.1728,-0.2099,-0.2088,-0.2115,-0.2115,-0.2137,-0.2135,-0.2108,-0.2151,-0.2134,-0.2096,-0.2121,-0.1984,-0.1874,-0.1663,-0.1593,-0.1472,-0.1558,-0.1447,-0.1489,-0.1529,-0.1477,-0.1612,-0.1419,-0.1421,-0.1422,-0.1423,-0.1424,0,-0.1975,-0.1978,-0.1977,-0.1977,-0.1944,-0.2003,-0.201,-0.1959,-0.1893,-0.1872,-0.1794,-0.1634,-0.1466,-0.1402,-0.1275,-0.1205,-0.1206,-0.1198,-0.1249,-0.1233,-0.1349,-0.1335,-0.1089,-0.1089,-0.1089,-0.1089,-0.109,-0.109,-0.1911,-0.1865,-0.1868,-0.1776,-0.1773,-0.1695,-0.167,-0.1611,-0.1568,-0.1408,-0.1322,-0.1259,-0.1228,-0.1256,-0.1148,-0.1095,-0.1098,-0.1055,-0.1097,-0.1214,-0.1242,-0.1269,-0.1261,-0.1004,-0.1004,-0.0933,-0.0933,-0.0932]},{"header":{"parameterUnit":"m.s-1","parameterCategory":2,"la1":30.2991,"la2":30.254,"lo1":-89.0895,"lo2":-89.0444,"dy":0.0017,"dx":0.0017,"nx":28,"ny":28,"refTime":"2025-12-17T09:00:00:Z","depth":"0","parameterNumber":3,"parameterNumberName":"V-component_of_CURRENTS"},"data":[0,0,0,0,0,0,0,0,0,0,0,0,0,0,0,0,0,0,0,0,0,0,0,0,0,0,0,0,0,0,0,0,0,0,0,0,0,0,0,0,0,0,0,0,0,0,0,0,0,0,0,0,0,0,0,0,0,0,-0.029,-0.0289,0,-0.0218,-0.0217,-0.0216,-0.0165,-0.0164,-0.0164,-0.0163,-0.0046,-0.0044,-0.0041,0,0,0,0,0,0,0,0,0,0,0,0,0,-0.0333,-0.0333,-0.029,-0.0289,-0.0288,-0.0218,-0.0217,-0.0216,-0.0165,-0.0164,-0.0164,-0.0163,-0.0047,-0.0044,-0.0041,0,0,0,0,0,0,0,0,0,0,0,0,0,-0.0293,-0.0333,-0.029,-0.0255,-0.0251,-0.0218,-0.0217,-0.0216,-0.0165,-0.0164,-0.0164,-0.0163,-0.0048,-0.0044,-0.004,-0.0025,0,0,-0.0027,-0.0025,0,0,0,0,0,0,0,0,-0.0295,-0.0291,-0.0261,-0.0257,-0.0253,-0.02,-0.0189,-0.015,-0.0165,-0.0197,-0.0163,-0.0163,-0.0095,-0.0087,-0.0074,-0.0019,-0.0014,-0.0027,-0.0024,-0.0023,-0.0021,0,0,0,0,0,0,0,-0.0298,-0.0294,-0.0261,-0.026,-0.0255,-0.0226,-0.022,-0.0181,-0.0148,-0.0194,-0.019,-0.0184,-0.0092,-0.0078,-0.007,-0.0012,-0.0027,-0.0023,-0.0021,-0.0019,0.0084,0.0084,0,0,0,0,0,0,-0.0312,-0.0297,-0.0263,-0.0259,-0.0274,-0.0226,-0.0219,-0.0217,-0.0149,-0.0139,-0.0184,-0.0181,-0.0085,-0.0075,-0.0066,-0.0034,-0.0023,-0.0019,-0.0016,0.0084,0.0084,0.0084,0,0,0,0,0,0,-0.0313,-0.031,-0.0266,-0.0276,-0.0269,-0.0226,-0.0224,-0.0216,-0.0202,-0.0142,-0.0131,-0.0178,-0.0084,-0.0072,-0.0032,-0.0029,-0.0017,-0.0013,0.0084,0.0084,0.0084,0.0025,0,0,0,0,0,0,-0.0315,-0.0311,-0.0316,-0.0277,-0.0269,-0.0253,-0.0224,-0.0215,-0.0199,-0.0195,-0.0134,-0.0122,-0.0083,-0.0038,-0.0027,-0.0023,-0.001,0.0083,0.0084,0.0084,0.0027,0.0023,0.002,0,0,0,0,0,-0.0317,-0.033,-0.0317,-0.0313,-0.0277,-0.0253,-0.0246,-0.0213,-0.0199,-0.0197,-0.0153,-0.0124,-0.0028,-0.0035,-0.0022,-0.0016,0.0083,0.0084,0.0084,0.0028,0.0024,0.002,0,0,0,0,0,0,-0.0352,-0.0324,-0.031,-0.0314,-0.0288,-0.0245,-0.0242,-0.0219,-0.0183,-0.0179,-0.0122,-0.0108,-0.0073,-0.0036,-0.0045,0.0015,0.0033,0.0036,-0.0014,-0.0017,-0.002,-0.0032,-0.0006,0,0,0,0,0,-0.0363,-0.0365,-0.033,-0.0333,-0.0324,-0.0284,-0.0271,-0.0249,-0.0212,-0.0196,-0.0152,-0.0104,-0.0061,-0.0034,0.0006,0.0039,0.0081,0.0052,0.0049,0.0046,0.0046,0.0109,0.0111,0.0086,0.0086,0.0086,0,0,-0.0377,-0.0363,-0.0363,-0.0341,-0.0318,-0.031,-0.0275,-0.0262,-0.0249,-0.0189,-0.016,-0.0117,-0.0056,-0.002,-0.0,0.0012,0.0075,0.0047,0.0044,0.0045,0.011,0.0112,0.0114,0.0086,0.0086,0.0086,0,0,-0.041,-0.0394,-0.0407,-0.039,-0.0364,-0.0336,-0.0335,-0.0295,-0.0272,-0.024,-0.0193,-0.0147,-0.0086,-0.0037,-0.0005,-0.0,0.005,0.0011,-0.0008,0.0053,0.0056,0.0058,0.0108,0.0116,0.0015,0.0015,0.0015,0,-0.0429,-0.0438,-0.0407,-0.0413,-0.0402,-0.0352,-0.0358,-0.0327,-0.0277,-0.0252,-0.024,-0.0138,-0.0092,-0.0031,-0.0031,-0.0007,0.003,-0.0001,0.0048,0.0052,0.0056,0.0106,0.0116,0.0012,0.0012,0.0013,0.0013,0,-0.047,-0.0473,-0.0479,-0.0468,-0.0451,-0.0449,-0.0402,-0.0378,-0.0343,-0.0302,-0.0244,-0.0177,-0.0114,-0.0092,-0.006,-0.0008,0.001,0.003,0.0054,0.0054,0.0108,0.0119,0.0008,0.0009,0.001,0.0011,0,0,-0.0517,-0.0511,-0.0512,-0.0515,-0.048,-0.0471,-0.0446,-0.0402,-0.0377,-0.0321,-0.0282,-0.0206,-0.0165,-0.0126,-0.0074,-0.002,0.0035,0.001,0.0014,0.0051,0.0164,0.02,0.0216,0.0062,0.0064,0.0065,0.0188,0,-0.0557,-0.0589,-0.0565,-0.0578,-0.0587,-0.053,-0.0508,-0.0459,-0.0403,-0.0352,-0.0268,-0.0214,-0.0178,-0.0147,-0.0088,0.0008,0.0061,-0.0,0.0165,0.0169,0.0196,0.0229,0.0261,0.0375,0.0198,0.02,0.0201,0,-0.0603,-0.0617,-0.0648,-0.0631,-0.0628,-0.0622,-0.0569,-0.0542,-0.045,-0.0405,-0.033,-0.0261,-0.0169,-0.0145,0.0018,-0.0024,0.0058,0.0131,0.0138,0.0202,0.0227,0.0349,0.0402,0.0499,0.0218,0.0217,0.0216,0,-0.0659,-0.0668,-0.0697,-0.0694,-0.0669,-0.0662,-0.0638,-0.0561,-0.0528,-0.0435,-0.0395,-0.0278,-0.0207,-0.0094,0.0056,0.0039,0.0237,0.0236,0.0348,0.0351,0.0427,0.0434,0.0588,0.0345,0.0345,0.0344,0.0344,0,-0.0713,-0.073,-0.0728,-0.0745,-0.0762,-0.072,-0.0708,-0.066,-0.0584,-0.053,-0.0431,-0.0352,-0.019,-0.0054,0.0058,0.0246,0.0245,0.0356,0.0393,0.0406,0.041,0.0536,0.0561,0.0349,0.0348,0.0347,0.0346,0,-0.077,-0.077,-0.0802,-0.0796,-0.0794,-0.0807,-0.0768,-0.0747,-0.0669,-0.0595,-0.0566,-0.0392,-0.0201,-0.0038,0.0175,0.0266,0.0502,0.0489,0.0488,0.0523,0.0697,0.0716,0.091,0.098,0.0627,0.0629,0.0631,0,-0.0802,-0.0829,-0.0852,-0.0872,-0.0874,-0.0879,-0.0873,-0.0803,-0.0765,-0.0602,-0.0562,-0.0363,-0.0189,0.0127,0.0324,0.0539,0.0606,0.0676,0.065,0.0727,0.0776,0.0787,0.0831,0.0727,0.0729,0.0731,0.0733,0,-0.0857,-0.0868,-0.0895,-0.0944,-0.0958,-0.096,-0.0938,-0.0915,-0.0802,-0.0695,-0.0505,-0.035,-0.0041,0.0246,0.0506,0.0627,0.0752,0.0718,0.0815,0.0885,0.0893,0.097,0.0612,0.0748,0.0747,0.0746,0.0745,0.0744,-0.0888,-0.0927,-0.0964,-0.1004,-0.1023,-0.1015,-0.0984,-0.0911,-0.0805,-0.057,-0.0467,-0.0152,0.0166,0.0557,0.0685,0.0941,0.0903,0.1014,0.1036,0.1044,0.11,0.0766,0.0929,0.0929,0.0928,0.0928,0.0927,0,-0.092,-0.0963,-0.1014,-0.1051,-0.1071,-0.1064,-0.1,-0.0899,-0.0727,-0.047,-0.0247,0.0195,0.0515,0.0797,0.1114,0.1249,0.127,0.1312,0.1338,0.1373,0.1106,0.1098,0.1286,0.1286,0.1286,0.1286,0.1285,0.1285,-0.0937,-0.0998,-0.1029,-0.1074,-0.1092,-0.1046,-0.0987,-0.0782,-0.056,-0.0114,0.0227,0.0467,0.0792,0.1209,0.1494,0.1521,0.1632,0.1623,0.1682,0.1487,0.1461,0.1435,0.1436,0.1691,0.1692,0.1949,0.1952,0.1954]}],[{"header":{"parameterUnit":"m.s-1","parameterCategory":2,"la1":30.2991,"la2":30.254,"lo1":-89.0895,"lo2":-89.0444,"dy":0.0017,"dx":0.0017,"nx":28,"ny":28,"refTime":"2025-12-17T09:00:00:Z","depth":"2","parameterNumber":2,"parameterNumberName":"U-component_of_CURRENTS"},"data":[0,0,0,0,0,0,0,0,0,0,0,0,0,0,0,0,0,0,0,0,0,0,0,0,0,0,0,0,0,0,0,0,0,0,0,0,0,0,0,0,0,0,0,0,0,0,0,0,0,0,0,0,0,0,0,0,0,0,-0.2057,-0.2057,0,-0.2077,-0.2077,-0.2077,-0.2055,-0.2054,-0.2053,-0.2053,-0.2025,-0.2025,-0.2024,0,0,0,0,0,0,0,0,0,0,0,0,0,-0.2004,-0.2005,-0.2057,-0.2057,-0.2058,-0.2077,-0.2077,-0.2077,-0.2055,-0.2054,-0.2053,-0.2052,-0.2025,-0.2025,-0.2024,0,0,0,0,0,0,0,0,0,0,0,0,0,-0.2025,-0.2006,-0.2057,-0.205,-0.205,-0.2077,-0.2077,-0.2077,-0.2055,-0.2054,-0.2053,-0.2052,-0.2025,-0.2025,-0.2024,-0.2045,0,0,-0.2024,-0.2024,0,0,0,0,0,0,0,0,-0.2023,-0.2026,-0.205,-0.205,-0.205,-0.2064,-0.2049,-0.2065,-0.2055,-0.2051,-0.2052,-0.2051,-0.2035,-0.2034,-0.2038,-0.2043,-0.2042,-0.2024,-0.2024,-0.2024,-0.2024,0,0,0,0,0,0,0,-0.2022,-0.2025,-0.2063,-0.2051,-0.2051,-0.2048,-0.205,-0.2052,-0.2046,-0.2051,-0.205,-0.2056,-0.2034,-0.2039,-0.2038,-0.2042,-0.2024,-0.2024,-0.2024,-0.2024,-0.2058,-0.2059,0,0,0,0,0,0,-0.2024,-0.2024,-0.2062,-0.2064,-0.2036,-0.205,-0.2052,-0.2059,-0.2047,-0.2046,-0.2056,-0.2054,-0.2039,-0.2038,-0.2036,-0.2059,-0.2024,-0.2024,-0.2024,-0.2057,-0.2058,-0.2059,0,0,0,0,0,0,-0.2023,-0.2028,-0.2062,-0.2045,-0.205,-0.2052,-0.2061,-0.206,-0.2064,-0.2052,-0.2049,-0.2061,-0.2039,-0.2037,-0.2042,-0.2058,-0.2024,-0.2024,-0.2056,-0.2057,-0.2059,-0.2105,0,0,0,0,0,0,-0.2021,-0.2027,-0.2031,-0.2046,-0.2051,-0.2081,-0.2062,-0.2061,-0.207,-0.2067,-0.2055,-0.2052,-0.2038,-0.2042,-0.2042,-0.2057,-0.2023,-0.2054,-0.2056,-0.2058,-0.2102,-0.2108,-0.2113,0,0,0,0,0,-0.202,-0.2033,-0.2031,-0.2036,-0.2057,-0.2082,-0.2085,-0.2081,-0.2071,-0.2079,-0.207,-0.2052,-0.2053,-0.2043,-0.2042,-0.2058,-0.2054,-0.2056,-0.2058,-0.21,-0.2107,-0.2113,0,0,0,0,0,0,-0.201,-0.2032,-0.2031,-0.2048,-0.2065,-0.2079,-0.2086,-0.2087,-0.2088,-0.2083,-0.2066,-0.2063,-0.2072,-0.2062,-0.2051,-0.2074,-0.205,-0.2053,-0.2083,-0.2089,-0.2094,-0.2087,-0.2023,0,0,0,0,0,-0.2012,-0.2025,-0.2046,-0.2059,-0.2069,-0.2079,-0.2088,-0.209,-0.2095,-0.2095,-0.2088,-0.2082,-0.2083,-0.2083,-0.2081,-0.2096,-0.2066,-0.2105,-0.2111,-0.2115,-0.2109,-0.2085,-0.2087,-0.2066,-0.2066,-0.2066,0,0,-0.2011,-0.2024,-0.2031,-0.2057,-0.2067,-0.2092,-0.2081,-0.2101,-0.2116,-0.2092,-0.2106,-0.21,-0.2091,-0.2105,-0.2109,-0.2098,-0.2106,-0.2118,-0.2122,-0.2113,-0.2087,-0.2089,-0.2091,-0.2068,-0.2068,-0.2067,0,0,-0.202,-0.203,-0.2046,-0.2065,-0.2089,-0.21,-0.2109,-0.2129,-0.2132,-0.2152,-0.2137,-0.2138,-0.2146,-0.2139,-0.2137,-0.2172,-0.2134,-0.2177,-0.2198,-0.2175,-0.2176,-0.2177,-0.2139,-0.2136,-0.2181,-0.2181,-0.2181,0,-0.2018,-0.2039,-0.2054,-0.2078,-0.2093,-0.2107,-0.213,-0.2145,-0.2163,-0.2165,-0.2161,-0.2165,-0.216,-0.2167,-0.2182,-0.2182,-0.2158,-0.2175,-0.2181,-0.2181,-0.218,-0.2141,-0.2137,-0.2183,-0.2183,-0.2183,-0.2183,0,-0.2039,-0.2059,-0.2073,-0.2105,-0.2126,-0.2148,-0.2175,-0.2192,-0.2198,-0.2206,-0.2216,-0.221,-0.2206,-0.2215,-0.2212,-0.2215,-0.2194,-0.2189,-0.2162,-0.2185,-0.2143,-0.2137,-0.2187,-0.2186,-0.2185,-0.2185,0,0,-0.202,-0.2076,-0.2078,-0.2095,-0.214,-0.2157,-0.2192,-0.2218,-0.2228,-0.2244,-0.2249,-0.2262,-0.2251,-0.2248,-0.2243,-0.2232,-0.2215,-0.2216,-0.2214,-0.2173,-0.2152,-0.207,-0.2056,-0.2212,-0.2212,-0.2211,-0.2122,0,-0.2027,-0.2068,-0.2098,-0.2135,-0.2157,-0.2187,-0.2216,-0.2241,-0.2256,-0.2267,-0.2264,-0.2268,-0.2268,-0.2265,-0.2256,-0.2226,-0.2204,-0.2238,-0.214,-0.2137,-0.2056,-0.2048,-0.1914,-0.1818,-0.2116,-0.2115,-0.2115,0,-0.2029,-0.2057,-0.2094,-0.2142,-0.2154,-0.2181,-0.2214,-0.2243,-0.2269,-0.2279,-0.2283,-0.2281,-0.2274,-0.2267,-0.2216,-0.2239,-0.2198,-0.2171,-0.2166,-0.2067,-0.2045,-0.1844,-0.1796,-0.2105,-0.2106,-0.2107,-0.2107,0,-0.1988,-0.2048,-0.2072,-0.209,-0.2154,-0.217,-0.22,-0.2238,-0.2252,-0.228,-0.228,-0.228,-0.2261,-0.2229,-0.2179,-0.2198,-0.2105,-0.212,-0.2001,-0.1994,-0.1847,-0.1828,-0.2068,-0.2068,-0.2068,-0.2068,-0.2069,0,-0.1971,-0.1988,-0.2054,-0.2066,-0.2088,-0.2146,-0.2166,-0.2198,-0.2234,-0.2236,-0.2274,-0.2257,-0.2251,-0.2203,-0.2167,-0.2053,-0.2087,-0.1989,-0.1962,-0.1859,-0.1843,-0.207,-0.2072,-0.2065,-0.2066,-0.2066,-0.2067,0,-0.191,-0.196,-0.1984,-0.2049,-0.2067,-0.2078,-0.2135,-0.2145,-0.2196,-0.2196,-0.2203,-0.2222,-0.2161,-0.213,-0.206,-0.2011,-0.1933,-0.1881,-0.1754,-0.1714,-0.1843,-0.1848,-0.1744,-0.174,-0.1737,-0.1734,-0.1732,0,-0.1877,-0.1886,-0.1946,-0.1953,-0.1978,-0.2012,-0.2028,-0.2104,-0.2115,-0.2158,-0.2141,-0.2111,-0.204,-0.1913,-0.1837,-0.1732,-0.1816,-0.1556,-0.1571,-0.1823,-0.1808,-0.1818,-0.1827,-0.1394,-0.1389,-0.1385,-0.1382,0,-0.18,-0.1823,-0.184,-0.1859,-0.1878,-0.1898,-0.1933,-0.1938,-0.2014,-0.2008,-0.1975,-0.1925,-0.1826,-0.1652,-0.1541,-0.1479,-0.157,-0.1471,-0.1746,-0.1504,-0.1487,-0.1475,-0.1496,-0.1347,-0.135,-0.1353,-0.1355,-0.1356,-0.1722,-0.1711,-0.1734,-0.1738,-0.1763,-0.1759,-0.1722,-0.1765,-0.1748,-0.1705,-0.1758,-0.1621,-0.1595,-0.1334,-0.125,-0.1198,-0.1314,-0.1262,-0.1277,-0.1295,-0.1278,-0.1257,-0.1069,-0.1071,-0.1072,-0.1074,-0.1075,0,-0.1608,-0.1608,-0.1609,-0.1605,-0.1575,-0.1634,-0.1629,-0.1556,-0.1478,-0.1471,-0.1404,-0.1202,-0.108,-0.1062,-0.0919,-0.0889,-0.091,-0.0861,-0.0893,-0.0927,-0.0958,-0.0927,-0.0623,-0.0622,-0.0621,-0.062,0,0,-0.1549,-0.1502,-0.1502,-0.141,-0.1406,-0.1304,-0.1265,-0.1178,-0.1128,-0.1001,-0.093,-0.0985,-0.0997,-0.0799,-0.0764,-0.0664,-0.0789,-0.0629,-0.0989,-0.1058,-0.1087,-0.1182,-0.1171,0,0,0,0,0]},{"header":{"parameterUnit":"m.s-1","parameterCategory":2,"la1":30.2991,"la2":30.254,"lo1":-89.0895,"lo2":-89.0444,"dy":0.0017,"dx":0.0017,"nx":28,"ny":28,"refTime":"2025-12-17T09:00:00:Z","depth":"2","parameterNumber":3,"parameterNumberName":"V-component_of_CURRENTS"},"data":[0,0,0,0,0,0,0,0,0,0,0,0,0,0,0,0,0,0,0,0,0,0,0,0,0,0,0,0,0,0,0,0,0,0,0,0,0,0,0,0,0,0,0,0,0,0,0,0,0,0,0,0,0,0,0,0,0,0,-0.0342,-0.0341,0,-0.0286,-0.0285,-0.0285,-0.0243,-0.0243,-0.0243,-0.0243,-0.0146,-0.0144,-0.0141,0,0,0,0,0,0,0,0,0,0,0,0,0,-0.0371,-0.0371,-0.0342,-0.0341,-0.0341,-0.0286,-0.0285,-0.0284,-0.0243,-0.0243,-0.0243,-0.0242,-0.0147,-0.0144,-0.0141,0,0,0,0,0,0,0,0,0,0,0,0,0,-0.0341,-0.0371,-0.0342,-0.0314,-0.0311,-0.0286,-0.0285,-0.0284,-0.0244,-0.0243,-0.0243,-0.0242,-0.0148,-0.0144,-0.0141,-0.0129,0,0,-0.013,-0.0129,0,0,0,0,0,0,0,0,-0.0343,-0.034,-0.0319,-0.0316,-0.0312,-0.0272,-0.026,-0.023,-0.0244,-0.0269,-0.0243,-0.0242,-0.0185,-0.0178,-0.0169,-0.0124,-0.012,-0.013,-0.0128,-0.0127,-0.0126,0,0,0,0,0,0,0,-0.0345,-0.0342,-0.0319,-0.0318,-0.0314,-0.029,-0.0285,-0.0254,-0.0229,-0.0266,-0.0263,-0.0258,-0.0183,-0.0172,-0.0166,-0.0119,-0.013,-0.0127,-0.0125,-0.0124,-0.0041,-0.0041,0,0,0,0,0,0,-0.0356,-0.0344,-0.0321,-0.0318,-0.0327,-0.029,-0.0285,-0.0285,-0.023,-0.0222,-0.0259,-0.0257,-0.0178,-0.017,-0.0162,-0.0136,-0.0127,-0.0123,-0.0121,-0.0041,-0.0041,-0.004,0,0,0,0,0,0,-0.0357,-0.0354,-0.0323,-0.033,-0.0324,-0.029,-0.029,-0.0284,-0.0273,-0.0225,-0.0215,-0.0255,-0.0178,-0.0167,-0.0135,-0.0132,-0.0122,-0.0119,-0.0041,-0.0041,-0.0041,-0.0088,0,0,0,0,0,0,-0.0358,-0.0355,-0.036,-0.0331,-0.0324,-0.0314,-0.0291,-0.0283,-0.0271,-0.0268,-0.0218,-0.0209,-0.0176,-0.014,-0.0131,-0.0127,-0.0116,-0.0041,-0.0041,-0.0041,-0.0087,-0.009,-0.0092,0,0,0,0,0,-0.0359,-0.0371,-0.0361,-0.0358,-0.0332,-0.0314,-0.0309,-0.0283,-0.0272,-0.0271,-0.0234,-0.021,-0.0132,-0.0137,-0.0127,-0.0122,-0.0041,-0.0041,-0.0041,-0.0086,-0.0089,-0.0092,0,0,0,0,0,0,-0.0387,-0.0367,-0.0356,-0.0361,-0.0341,-0.0308,-0.0306,-0.0288,-0.026,-0.0256,-0.0209,-0.0197,-0.0169,-0.0139,-0.0146,-0.0097,-0.0082,-0.008,-0.012,-0.0123,-0.0125,-0.0136,-0.0113,0,0,0,0,0,-0.0396,-0.04,-0.0373,-0.0377,-0.037,-0.0339,-0.0329,-0.0312,-0.0283,-0.0271,-0.0234,-0.0195,-0.016,-0.0137,-0.0105,-0.0078,-0.0043,-0.0067,-0.007,-0.0072,-0.0073,-0.0018,-0.0015,-0.0039,-0.0039,-0.0039,0,0,-0.0407,-0.0397,-0.0399,-0.0383,-0.0366,-0.0362,-0.0332,-0.0323,-0.0314,-0.0264,-0.0242,-0.0206,-0.0156,-0.0127,-0.011,-0.01,-0.0047,-0.0072,-0.0074,-0.0074,-0.0017,-0.0015,-0.0012,-0.0039,-0.0039,-0.0039,0,0,-0.0436,-0.0424,-0.0437,-0.0424,-0.0405,-0.0383,-0.0384,-0.0352,-0.0333,-0.0309,-0.027,-0.0231,-0.0182,-0.0141,-0.0114,-0.0111,-0.0068,-0.0102,-0.0118,-0.0064,-0.0062,-0.0059,-0.0017,-0.001,-0.0098,-0.0098,-0.0098,0,-0.0451,-0.0462,-0.0437,-0.0445,-0.0438,-0.0397,-0.0405,-0.038,-0.0341,-0.0321,-0.031,-0.0225,-0.0187,-0.0136,-0.0136,-0.0116,-0.0084,-0.0112,-0.0068,-0.0064,-0.0061,-0.0018,-0.001,-0.0101,-0.01,-0.01,-0.01,0,-0.0488,-0.0494,-0.05,-0.0495,-0.0483,-0.0483,-0.0446,-0.0428,-0.0399,-0.0365,-0.0316,-0.0259,-0.0206,-0.0187,-0.0161,-0.0115,-0.0101,-0.0083,-0.0063,-0.0062,-0.0016,-0.0007,-0.0104,-0.0103,-0.0102,-0.0102,0,0,-0.0528,-0.0529,-0.053,-0.0535,-0.051,-0.0504,-0.0486,-0.0452,-0.0433,-0.0385,-0.0352,-0.0288,-0.025,-0.0218,-0.0172,-0.0125,-0.0076,-0.01,-0.0096,-0.0064,0.0036,0.0056,0.0068,-0.0051,-0.005,-0.0048,0.0056,0,-0.0564,-0.0597,-0.0578,-0.0594,-0.0605,-0.0559,-0.0544,-0.0505,-0.0459,-0.0415,-0.0341,-0.0297,-0.0262,-0.0237,-0.0183,-0.01,-0.0053,-0.0106,0.0035,0.0039,0.0053,0.0079,0.0055,0.0147,0.0065,0.0066,0.0068,0,-0.0606,-0.0622,-0.0654,-0.0646,-0.0644,-0.0643,-0.0603,-0.0582,-0.0505,-0.0466,-0.04,-0.034,-0.0259,-0.0236,-0.0092,-0.0128,-0.0055,0.0008,0.0014,0.0056,0.0077,0.0135,0.0167,0.0084,0.0082,0.0081,0.008,0,-0.0655,-0.0669,-0.0698,-0.0697,-0.0683,-0.0681,-0.0664,-0.0601,-0.0575,-0.0496,-0.0464,-0.0359,-0.0298,-0.0195,-0.0065,-0.0077,0.0093,0.0097,0.0185,0.0187,0.0207,0.0208,0.0194,0.0194,0.0194,0.0193,0.0193,0,-0.0703,-0.0722,-0.0726,-0.0744,-0.0765,-0.0732,-0.0728,-0.069,-0.0627,-0.0587,-0.0497,-0.0435,-0.0285,-0.0168,-0.0065,0.0095,0.0099,0.019,0.0221,0.0189,0.0187,0.0163,0.0158,0.0197,0.0196,0.0196,0.0195,0,-0.0754,-0.0758,-0.079,-0.0793,-0.0794,-0.081,-0.0784,-0.0771,-0.0706,-0.0649,-0.0627,-0.0479,-0.0319,-0.0169,0.0019,0.0103,0.0244,0.0296,0.0242,0.0266,0.0298,0.0289,0.0403,0.0405,0.0406,0.0407,0.0408,0,-0.0783,-0.0809,-0.0837,-0.0859,-0.0865,-0.0877,-0.088,-0.0823,-0.0796,-0.0666,-0.0638,-0.0473,-0.0335,-0.0058,0.0118,0.031,0.0304,0.0386,0.0361,0.0304,0.0323,0.0312,0.0301,0.0369,0.037,0.037,0.037,0,-0.0833,-0.0844,-0.0872,-0.0926,-0.0946,-0.0958,-0.095,-0.0938,-0.0849,-0.0772,-0.0629,-0.0507,-0.0238,-0.0013,0.0222,0.0325,0.0351,0.0402,0.0382,0.0312,0.0278,0.0294,0.0284,0.0375,0.0374,0.0374,0.0374,0.0374,-0.0861,-0.0898,-0.0937,-0.0981,-0.1009,-0.1021,-0.1013,-0.0971,-0.0902,-0.0754,-0.0631,-0.0409,-0.0221,0.014,0.0289,0.0426,0.0423,0.0452,0.0447,0.0443,0.0413,0.0383,0.0494,0.0494,0.0494,0.0494,0.0494,0,-0.0892,-0.0932,-0.0985,-0.1032,-0.1063,-0.1063,-0.104,-0.0995,-0.0896,-0.0741,-0.0571,-0.0302,-0.0055,0.0142,0.0362,0.0481,0.046,0.0495,0.044,0.0435,0.0431,0.0398,0.0476,0.0476,0.0476,0.0477,0,0,-0.0908,-0.0968,-0.0998,-0.1058,-0.1087,-0.1088,-0.1065,-0.0973,-0.0849,-0.0663,-0.048,-0.027,-0.003,0.012,0.0265,0.0377,0.0368,0.0384,0.0385,0.0296,0.029,0.0396,0.0338,0,0,0,0,0]}],[{"header":{"parameterUnit":"m.s-1","parameterCategory":2,"la1":30.2991,"la2":30.254,"lo1":-89.0895,"lo2":-89.0444,"dy":0.0017,"dx":0.0017,"nx":28,"ny":28,"refTime":"2025-12-17T09:00:00:Z","depth":"4","parameterNumber":2,"parameterNumberName":"U-component_of_CURRENTS"},"data":[0,0,0,0,0,0,0,0,0,0,0,0,0,0,0,0,0,0,0,0,0,0,0,0,0,0,0,0,0,0,0,0,0,0,0,0,0,0,0,0,0,0,0,0,0,0,0,0,0,0,0,0,0,0,0,0,0,0,-0.1412,-0.1413,0,-0.1456,-0.1457,-0.1457,-0.1485,-0.1486,-0.1486,-0.1486,-0.1521,-0.1521,-0.1522,0,0,0,0,0,0,0,0,0,0,0,0,0,-0.1354,-0.1355,-0.1412,-0.1413,-0.1413,-0.1456,-0.1457,-0.1457,-0.1485,-0.1486,-0.1486,-0.1486,-0.152,-0.1521,-0.1522,0,0,0,0,0,0,0,0,0,0,0,0,0,-0.1385,-0.1355,-0.1412,-0.1433,-0.1436,-0.1456,-0.1457,-0.1457,-0.1485,-0.1486,-0.1486,-0.1486,-0.152,-0.1521,-0.1522,-0.152,0,0,-0.1525,-0.1526,0,0,0,0,0,0,0,0,-0.1384,-0.1387,-0.143,-0.1432,-0.1435,-0.1467,-0.1449,-0.1478,-0.1485,-0.1465,-0.1486,-0.1487,-0.1502,-0.1505,-0.1511,-0.1522,-0.1523,-0.1525,-0.1526,-0.1526,-0.1527,0,0,0,0,0,0,0,-0.1381,-0.1386,-0.1428,-0.143,-0.1433,-0.1442,-0.1446,-0.1455,-0.148,-0.1467,-0.1469,-0.1476,-0.1503,-0.1509,-0.1512,-0.1524,-0.1525,-0.1526,-0.1527,-0.1527,-0.1594,-0.1595,0,0,0,0,0,0,-0.1378,-0.1384,-0.1427,-0.143,-0.1411,-0.1442,-0.1448,-0.1455,-0.148,-0.1485,-0.1476,-0.1477,-0.1508,-0.151,-0.1513,-0.157,-0.1526,-0.1527,-0.1528,-0.1593,-0.1594,-0.1595,0,0,0,0,0,0,-0.1376,-0.1381,-0.1425,-0.1409,-0.1415,-0.1443,-0.1451,-0.1456,-0.1486,-0.1487,-0.1491,-0.1504,-0.1508,-0.1511,-0.1543,-0.1569,-0.1528,-0.1529,-0.1591,-0.1593,-0.1595,-0.1646,0,0,0,0,0,0,-0.1375,-0.138,-0.1396,-0.1408,-0.1416,-0.1453,-0.1451,-0.1456,-0.1488,-0.1492,-0.1512,-0.1514,-0.1509,-0.1541,-0.1544,-0.157,-0.1529,-0.159,-0.1592,-0.1594,-0.1643,-0.165,-0.1655,0,0,0,0,0,-0.1372,-0.1388,-0.1396,-0.1402,-0.1432,-0.1454,-0.1459,-0.1479,-0.149,-0.1507,-0.1523,-0.1515,-0.1557,-0.1543,-0.1546,-0.1573,-0.1589,-0.1591,-0.1594,-0.1641,-0.1648,-0.1655,0,0,0,0,0,0,-0.1372,-0.1393,-0.1402,-0.1424,-0.1446,-0.1459,-0.1481,-0.1494,-0.1521,-0.1531,-0.153,-0.1534,-0.157,-0.1565,-0.155,-0.1598,-0.1571,-0.1575,-0.1606,-0.1613,-0.1619,-0.161,-0.153,0,0,0,0,0,-0.1378,-0.1397,-0.1416,-0.1436,-0.1449,-0.147,-0.1487,-0.1501,-0.1521,-0.1535,-0.155,-0.1565,-0.1578,-0.1592,-0.1601,-0.163,-0.1604,-0.1648,-0.1654,-0.1659,-0.1654,-0.1641,-0.1645,-0.1604,-0.1604,-0.1604,0,0,-0.1386,-0.1399,-0.1411,-0.1438,-0.1457,-0.1481,-0.1482,-0.1515,-0.154,-0.1533,-0.158,-0.1588,-0.159,-0.1621,-0.1637,-0.1625,-0.1658,-0.1663,-0.1667,-0.1658,-0.1645,-0.1648,-0.1652,-0.1606,-0.1605,-0.1605,0,0,-0.1399,-0.1421,-0.1439,-0.146,-0.1492,-0.1505,-0.1521,-0.1551,-0.1574,-0.1613,-0.1614,-0.1637,-0.1667,-0.1669,-0.1673,-0.1717,-0.1689,-0.173,-0.1756,-0.1745,-0.1748,-0.175,-0.172,-0.1719,-0.1735,-0.1735,-0.1735,0,-0.1409,-0.1429,-0.1449,-0.1471,-0.1492,-0.152,-0.1545,-0.1571,-0.161,-0.1627,-0.1637,-0.1676,-0.1684,-0.1706,-0.1727,-0.173,-0.1714,-0.1729,-0.1752,-0.1753,-0.1754,-0.1723,-0.1722,-0.1738,-0.1738,-0.1737,-0.1737,0,-0.1425,-0.1454,-0.1469,-0.1504,-0.1531,-0.1559,-0.1593,-0.1628,-0.166,-0.1678,-0.1719,-0.173,-0.1748,-0.1762,-0.1762,-0.1782,-0.1763,-0.1758,-0.173,-0.1762,-0.1727,-0.1724,-0.1742,-0.1741,-0.174,-0.174,0,0,-0.141,-0.1468,-0.1476,-0.1499,-0.1551,-0.1571,-0.1621,-0.166,-0.1688,-0.1731,-0.1758,-0.1792,-0.1799,-0.1803,-0.1807,-0.1806,-0.1807,-0.1795,-0.1793,-0.176,-0.1772,-0.1654,-0.1639,-0.1811,-0.1811,-0.1811,-0.1743,0,-0.1417,-0.1458,-0.149,-0.1539,-0.1562,-0.1607,-0.1647,-0.169,-0.1726,-0.1762,-0.1779,-0.1809,-0.1815,-0.183,-0.1832,-0.1815,-0.1804,-0.1825,-0.1751,-0.1748,-0.1635,-0.1633,-0.1811,-0.1741,-0.174,-0.1739,-0.1739,0,-0.1412,-0.1443,-0.1489,-0.1551,-0.1567,-0.1606,-0.1666,-0.1706,-0.1758,-0.1786,-0.1816,-0.1831,-0.1847,-0.1845,-0.1822,-0.1839,-0.181,-0.1789,-0.1786,-0.1652,-0.1624,-0.1703,-0.1733,-0.1734,-0.1734,-0.1735,-0.1735,0,-0.1369,-0.1438,-0.1475,-0.1498,-0.1574,-0.161,-0.1654,-0.1714,-0.1743,-0.1801,-0.1817,-0.1843,-0.1848,-0.1832,-0.1801,-0.1818,-0.1753,-0.1765,-0.1623,-0.1615,-0.172,-0.1718,-0.1732,-0.1732,-0.1732,-0.1733,-0.1733,0,-0.1343,-0.1375,-0.1465,-0.1483,-0.1529,-0.1595,-0.1644,-0.1691,-0.175,-0.1763,-0.1826,-0.1819,-0.1847,-0.1818,-0.1795,-0.1686,-0.1744,-0.1612,-0.1585,-0.1744,-0.1746,-0.1717,-0.1716,-0.173,-0.1731,-0.1731,-0.1731,0,-0.1278,-0.1341,-0.1385,-0.1477,-0.1508,-0.1541,-0.1629,-0.1651,-0.1725,-0.1741,-0.1759,-0.1797,-0.1755,-0.1749,-0.1706,-0.1648,-0.1578,-0.1524,-0.1676,-0.1661,-0.145,-0.1453,-0.1358,-0.1353,-0.1349,-0.1346,-0.1343,0,-0.1241,-0.1261,-0.1362,-0.1387,-0.1433,-0.1497,-0.1529,-0.1623,-0.1638,-0.17,-0.1683,-0.1681,-0.1686,-0.1512,-0.1541,-0.1464,-0.1448,-0.1405,-0.1444,-0.1426,-0.141,-0.142,-0.1428,-0.1336,-0.1335,-0.1334,-0.1333,0,-0.1165,-0.1216,-0.125,-0.1303,-0.1349,-0.1387,-0.1443,-0.1442,-0.1527,-0.1611,-0.1546,-0.1511,-0.145,-0.1412,-0.1353,-0.131,-0.1436,-0.1362,-0.1371,-0.1408,-0.1399,-0.1389,-0.1402,-0.1319,-0.1321,-0.1322,-0.1323,0,-0.1103,-0.1108,-0.1161,-0.1191,-0.1248,-0.125,-0.1299,-0.1302,-0.1328,-0.1406,-0.1376,-0.1377,-0.142,-0.1328,-0.1281,-0.1221,-0.1211,-0.1177,-0.1195,-0.1211,-0.1197,-0.1166,-0.0974,0,0,0,0,0,-0.1029,-0.1019,-0.1041,-0.1065,-0.1117,-0.1142,-0.1221,-0.1272,-0.1358,-0.1265,-0.1316,-0.1255,-0.1181,-0.1193,-0.1097,-0.1223,-0.1223,-0.111,-0.1197,-0.124,-0.1257,-0.1255,0,0,0,0,0,0,-0.0979,-0.0994,-0.0997,-0.095,-0.094,-0.0974,-0.1016,-0.1077,-0.1039,-0.1131,-0.1091,-0.1164,-0.1109,-0.1193,-0.1061,-0.1064,-0.109,-0.1128,-0.1124,-0.1231,-0.1246,-0.1259,-0.1263,0,0,0,0,0]},{"header":{"parameterUnit":"m.s-1","parameterCategory":2,"la1":30.2991,"la2":30.254,"lo1":-89.0895,"lo2":-89.0444,"dy":0.0017,"dx":0.0017,"nx":28,"ny":28,"refTime":"2025-12-17T09:00:00:Z","depth":"4","parameterNumber":3,"parameterNumberName":"V-component_of_CURRENTS"},"data":[0,0,0,0,0,0,0,0,0,0,0,0,0,0,0,0,0,0,0,0,0,0,0,0,0,0,0,0,0,0,0,0,0,0,0,0,0,0,0,0,0,0,0,0,0,0,0,0,0,0,0,0,0,0,0,0,0,0,-0.0254,-0.0253,0,-0.0224,-0.0223,-0.0223,-0.0202,-0.0202,-0.0202,-0.0202,-0.0138,-0.0136,-0.0135,0,0,0,0,0,0,0,0,0,0,0,0,0,-0.0264,-0.0264,-0.0254,-0.0253,-0.0253,-0.0224,-0.0223,-0.0223,-0.0202,-0.0202,-0.0202,-0.0202,-0.0138,-0.0137,-0.0135,0,0,0,0,0,0,0,0,0,0,0,0,0,-0.0249,-0.0264,-0.0254,-0.0239,-0.0238,-0.0224,-0.0223,-0.0223,-0.0202,-0.0202,-0.0202,-0.0201,-0.0139,-0.0137,-0.0134,-0.0124,0,0,-0.0127,-0.0126,0,0,0,0,0,0,0,0,-0.025,-0.0248,-0.0242,-0.024,-0.0239,-0.0217,-0.0204,-0.0188,-0.0202,-0.0215,-0.0202,-0.0201,-0.0162,-0.0157,-0.0152,-0.0121,-0.0118,-0.0127,-0.0126,-0.0125,-0.0124,0,0,0,0,0,0,0,-0.0251,-0.0249,-0.0241,-0.0241,-0.0239,-0.0224,-0.0222,-0.02,-0.0189,-0.0214,-0.0213,-0.021,-0.016,-0.0154,-0.015,-0.0117,-0.0127,-0.0125,-0.0124,-0.0123,-0.0068,-0.0068,0,0,0,0,0,0,-0.0257,-0.0251,-0.0242,-0.0241,-0.0244,-0.0225,-0.0222,-0.0224,-0.019,-0.0185,-0.021,-0.0209,-0.0159,-0.0153,-0.0148,-0.0133,-0.0125,-0.0122,-0.0121,-0.0068,-0.0068,-0.0068,0,0,0,0,0,0,-0.0257,-0.0257,-0.0244,-0.0245,-0.0242,-0.0225,-0.0226,-0.0223,-0.0221,-0.0187,-0.0182,-0.0211,-0.0158,-0.0151,-0.0131,-0.013,-0.0121,-0.0119,-0.0068,-0.0068,-0.0068,-0.0103,0,0,0,0,0,0,-0.0258,-0.0257,-0.0264,-0.0246,-0.0242,-0.0241,-0.0227,-0.0223,-0.0219,-0.0218,-0.0186,-0.018,-0.0158,-0.0135,-0.0129,-0.0127,-0.0117,-0.0068,-0.0068,-0.0068,-0.0102,-0.0104,-0.0106,0,0,0,0,0,-0.0258,-0.0269,-0.0264,-0.0263,-0.0251,-0.0242,-0.0239,-0.0225,-0.022,-0.0222,-0.0199,-0.0181,-0.013,-0.0133,-0.0126,-0.0123,-0.0068,-0.0068,-0.0068,-0.0101,-0.0104,-0.0106,0,0,0,0,0,0,-0.0276,-0.0267,-0.0262,-0.0269,-0.0259,-0.0238,-0.0241,-0.023,-0.0215,-0.0214,-0.0182,-0.0174,-0.0157,-0.0135,-0.014,-0.0107,-0.0096,-0.0094,-0.0123,-0.0126,-0.0128,-0.0136,-0.0115,0,0,0,0,0,-0.0283,-0.029,-0.0275,-0.0281,-0.0278,-0.0261,-0.0256,-0.0248,-0.023,-0.0224,-0.02,-0.0174,-0.015,-0.0135,-0.0114,-0.0096,-0.0068,-0.0088,-0.0091,-0.0093,-0.0094,-0.0049,-0.0047,-0.0067,-0.0067,-0.0067,0,0,-0.0292,-0.0288,-0.0292,-0.0286,-0.0277,-0.0278,-0.0258,-0.0256,-0.0254,-0.0218,-0.0209,-0.0184,-0.0148,-0.0129,-0.0119,-0.0111,-0.0073,-0.0092,-0.0094,-0.0095,-0.0049,-0.0047,-0.0045,-0.0067,-0.0067,-0.0067,0,0,-0.0313,-0.0309,-0.0322,-0.0316,-0.0309,-0.0296,-0.0298,-0.0281,-0.0271,-0.0258,-0.0231,-0.0203,-0.0172,-0.0141,-0.0122,-0.0122,-0.0089,-0.0117,-0.013,-0.0086,-0.0084,-0.0082,-0.0049,-0.0043,-0.0114,-0.0114,-0.0114,0,-0.0325,-0.0338,-0.0323,-0.0333,-0.0332,-0.0307,-0.0317,-0.0302,-0.028,-0.0269,-0.0262,-0.0204,-0.0176,-0.014,-0.014,-0.0126,-0.0101,-0.0124,-0.0089,-0.0086,-0.0083,-0.005,-0.0043,-0.0116,-0.0116,-0.0116,-0.0116,0,-0.0353,-0.0364,-0.037,-0.0373,-0.0368,-0.0374,-0.0352,-0.0343,-0.0327,-0.0306,-0.0274,-0.0231,-0.0194,-0.018,-0.0161,-0.0126,-0.0115,-0.0101,-0.0084,-0.0083,-0.0048,-0.0041,-0.0118,-0.0118,-0.0117,-0.0117,0,0,-0.0379,-0.039,-0.0393,-0.0403,-0.0392,-0.0392,-0.0385,-0.0367,-0.0359,-0.0327,-0.0307,-0.0259,-0.0231,-0.0207,-0.0172,-0.0133,-0.0093,-0.0114,-0.011,-0.0084,-0.0004,-0.0016,-0.0009,-0.0073,-0.0071,-0.0071,0.0011,0,-0.0406,-0.0439,-0.043,-0.0452,-0.0465,-0.0439,-0.0435,-0.0413,-0.0384,-0.0357,-0.03,-0.0271,-0.0241,-0.0223,-0.0178,-0.0114,-0.0075,-0.0117,-0.0005,-0.0002,-0.0015,-0.0001,-0.0067,0.0017,0.0018,0.002,0.0021,0,-0.0435,-0.0454,-0.0488,-0.0495,-0.0498,-0.0505,-0.0489,-0.0479,-0.0429,-0.0404,-0.0355,-0.031,-0.0245,-0.0224,-0.0108,-0.0138,-0.0077,-0.0027,-0.0022,-0.0016,-0.0,0.0019,0.0034,0.0033,0.0032,0.0031,0.0031,0,-0.0466,-0.049,-0.0522,-0.0526,-0.053,-0.0539,-0.0535,-0.0499,-0.0486,-0.0432,-0.0412,-0.0328,-0.0283,-0.0197,-0.0092,-0.0099,0.0034,0.0042,0.009,0.009,0.0091,0.0088,0.0122,0.0122,0.0122,0.0122,0.0121,0,-0.0496,-0.052,-0.0544,-0.0563,-0.0594,-0.0579,-0.0592,-0.0571,-0.0533,-0.0511,-0.044,-0.0396,-0.0274,-0.0182,-0.0094,0.0021,0.0038,0.009,0.0113,0.0074,0.0068,0.0096,0.0092,0.0125,0.0124,0.0123,0.0123,0,-0.0522,-0.0539,-0.0578,-0.0603,-0.0614,-0.0636,-0.0641,-0.0639,-0.0599,-0.0566,-0.055,-0.0439,-0.0317,-0.0196,-0.0043,0.0017,0.0127,0.0163,0.0108,0.0125,0.0152,0.0145,0.0222,0.0222,0.0222,0.0222,0.0223,0,-0.0537,-0.0563,-0.0616,-0.0646,-0.0663,-0.0692,-0.0708,-0.0681,-0.0667,-0.0585,-0.0564,-0.0446,-0.0362,-0.0148,-0.0031,0.0135,0.0154,0.02,0.0178,0.0149,0.0164,0.0157,0.015,0.0223,0.0223,0.0223,0.0223,0,-0.0561,-0.0587,-0.062,-0.0687,-0.0723,-0.0751,-0.0764,-0.0755,-0.0705,-0.0674,-0.0555,-0.0438,-0.0299,-0.014,-0.0013,0.0104,0.0163,0.0204,0.0204,0.0183,0.0152,0.0165,0.0157,0.0224,0.0224,0.0224,0.0224,0,-0.0575,-0.0609,-0.066,-0.0711,-0.0764,-0.0787,-0.0793,-0.0755,-0.0728,-0.0626,-0.0586,-0.0428,-0.033,-0.0155,-0.0036,0.0075,0.0097,0.0119,0.0123,0.0124,0.0064,0.0009,0.0061,0,0,0,0,0,-0.0581,-0.062,-0.0676,-0.073,-0.0783,-0.0806,-0.0815,-0.0804,-0.0756,-0.0673,-0.0622,-0.0485,-0.0284,-0.0191,-0.0081,-0.0054,0.0094,0.0075,0.0115,0.0229,0.0228,0.0174,0,0,0,0,0,0,-0.0586,-0.0643,-0.0674,-0.0732,-0.0768,-0.0812,-0.0818,-0.0788,-0.0726,-0.0663,-0.0548,-0.0474,-0.0277,-0.0342,-0.008,-0.0047,-0.0012,0.0175,0.0177,0.023,0.0229,0.0228,0.0172,0,0,0,0,0]}]]